Regional Weather Roundup
Issued by NWS

Home | Current Version | Previous Version | Graphics & Text | Print | Product List | Glossary On
Versions: 1 2 3 4 5 6 7 8 9 10 11 12 13 14 15 16 17 18 19 20 21 22 23 24 25 26 27 28 29 30 31 32 33 34 35 36 37 38 39 40 41 42 43 44 45 46 47 48 49 50
840
ASUS43 KIND 060759
RWRIN

WEATHER ROUNDUP FOR INDIANA
NATIONAL WEATHER SERVICE INDIANAPOLIS IN
400 AM EDT FRI MAY 06 2016

NOTE: "FAIR" INDICATES FEW OR NO CLOUDS BELOW 12,000 FEET WITH NO
SIGNIFICANT WEATHER AND/OR OBSTRUCTIONS TO VISIBILITY.

* - STATION DOES NOT REPORT WEATHER SUCH AS PRECIPITATION OR FOG.

+ - STATION NOT QUALITY CONTROLLED BY THE NATIONAL WEATHER SERVICE.
    USE DATA WITH CAUTION...ESPECIALLY DEWPOINT AND RELATIVE
    HUMIDITY OBSERVATIONS.

INZ001>003-010>013-019-020-060900-
NORTHWEST INDIANA

CITY           SKY/WX    TMP DP  RH WIND       PRES   REMARKS
RENSSELAER +   CLEAR     43  41  93 CALM      29.98F

$$

LMZ046-743>745-060900-
SOUTHERN LAKE MICHIGAN

STATION/POSITION TIME  TEMP    WIND        PRES    WAVE
                       AIR SEA DIR/SP/G            HT
                 (UTC) (F)     (DEG/KT/KT) (MB)    (FT)
BURNS HARBOR     0700   45     220/  1/  4 1015.9S
MICHIGAN CITY    0700   43     190/  3/  4   N/A

$$

INZ004-005-014>016-021>024-060900-
NORTH CENTRAL INDIANA

CITY           SKY/WX    TMP DP  RH WIND       PRES   REMARKS
GOSHEN         CLEAR     39  35  86 NW5       29.95F
SOUTH BEND     CLEAR     37  35  92 NW3       29.97S

$$

INZ006>009-017-018-025>027-060900-
NORTHEAST INDIANA

CITY           SKY/WX    TMP DP  RH WIND       PRES   REMARKS
ANGOLA *+        N/A     45  39  81 NW3       29.94S
FORT WAYNE     CLEAR     47  38  71 NW5       29.94F

$$

INZ028-029-035-036-043>045-051>053-060900-
WEST CENTRAL INDIANA

CITY           SKY/WX    TMP DP  RH WIND       PRES   REMARKS
CRAWFORDSVL +  CLEAR     40  40 100 W3        29.98S
GREENCASTLE +  CLEAR     45  43  93 NW3       29.98S
LAFAYETTE      CLEAR     38  38 100 W5        29.99S FOG
TERRE HAUTE    CLEAR     46  42  86 NW6       29.99S

$$

INZ030>032-037>040-046>048-054>057-064-065-060900-
CENTRAL INDIANA

CITY           SKY/WX    TMP DP  RH WIND       PRES   REMARKS
INDIANAPOLIS   PTCLDY    45  39  79 NW9       29.95F
-EAGLE CREEK   PTCLDY    49  41  74 NW8       29.96S
KOKOMO *+      CLEAR     43  37  81 W8        29.96S
SHELBYVILLE    PTCLDY    47  41  80 N6        29.95S

$$

INZ033-034-041-042-049-050-058-059-060900-
EAST CENTRAL INDIANA

CITY           SKY/WX    TMP DP  RH WIND       PRES   REMARKS
MUNCIE         CLEAR     46  40  79 NW5       29.94F

$$

INZ060-061-067>069-081>083-085>088-060900-
SOUTHWEST INDIANA

CITY           SKY/WX    TMP DP  RH WIND       PRES   REMARKS
EVANSVILLE     CLEAR     50  43  77 NW3       30.00R
HUNTINGBURG *+ CLEAR     46  41  81 NW5       29.98S

$$

INZ062-063-066-070>080-084-089>092-060900-
SOUTH CENTRAL AND SOUTHEAST INDIANA

CITY           SKY/WX    TMP DP  RH WIND       PRES   REMARKS
BLOOMINGTON    CLEAR     45  41  86 CALM      29.97S
MADISON *+     CLEAR     46  43  87 NW3       29.96S
SEYMOUR +      CLEAR     46  43  87 CALM      29.96S

$$





USA.gov is the U.S. government's official web portal to all federal, state and local government web resources and services.